Tracking 30922 objects as of 2-Jul-2025
HD Live streaming from Space Station
objects crossing your sky now

SL-12 R/B(2)

Track SL-12 R/B(2) now!


NORAD ID: 17872
Int'l Code: 1976-092F
Perigee: 35,710.5 km
Apogee: 35,855.2 km
Inclination: 4.4 °
Period: 1,435.5 minutes
Semi major axis: 42153 km
RCS: 1.5849 m2 (large)
Launch date: September 11, 1976
Source: Commonwealth of Independent States (former USSR) (CIS)
Launch site: TYURATAM MISSILE AND SPACE COMPLEX (TTMTR)

Note: This is a ROCKET BODY
Your satellite tracking list
Your tracking list is empty




NASA's NSSDC Master Catalog

Two Line Element Set (TLE):
1 17872U 76092F   25182.90554508 -.00000221  00000-0  00000-0 0  9999
2 17872   4.3666 275.3574 0017163 189.3369 230.5065  1.00310794115410
Source of the keplerian elements: AFSPC